EW0184 Weather Reports


Display with metric or nautical units.
time (UTC)temp
F
wind
direction
speed
MPH
gust
MPH
rain 1hr
in
rain 24hr
in
rain mn
in
humidity
%
barometer
mb
20260831231033 92 179 0.0 3.0 0.00 0.00 0.00 29 1001.6
20260831230526 92 118 0.0 2.0 0.00 0.00 0.00 31 1001.5
20260831230025 93 116 0.0 1.0 0.00 0.00 0.00 33 1001.6
20260831225535 94 184 0.0 1.0 0.00 0.00 0.00 31 1001.7
20260831225027 95 18 0.0 3.0 0.00 0.00 0.00 28 1001.7
20260831224524 97 102 0.0 3.0 0.00 0.00 0.00 26 1001.8
20260831224034 97 148 0.0 1.0 0.00 0.00 0.00 27 1001.7
20260831223529 97 85 0.0 2.0 0.00 0.00 0.00 26 1001.8
20260831223025 97 107 0.0 2.0 0.00 0.00 0.00 24 1001.9
20260831222534 98 49 0.0 4.0 0.00 0.00 0.00 27 1001.9
20260831222113 99 104 0.0 4.0 0.00 0.00 0.00 21 1002.1
20260831221632 99 166 1.0 4.0 0.00 0.00 0.00 21 1002.1
20260831221129 100 118 0.0 5.0 0.00 0.00 0.00 19 1002.1
20260831220622 99 155 0.0 5.0 0.00 0.00 0.00 18 1002.2
20260831220138 99 158 0.0 6.0 0.00 0.00 0.00 21 1002.1
20260831215632 98 130 1.0 6.0 0.00 0.00 0.00 20 1002.3
20260831215127 98 117 1.0 5.0 0.00 0.00 0.00 23 1002.4
20260831214621 97 101 0.0 5.0 0.00 0.00 0.00 24 1002.5
20260831214133 98 264 0.0 4.0 0.00 0.00 0.00 26 1002.5
20260831213629 100 39 0.0 2.0 0.00 0.00 0.00 24 1002.6
20260831213138 99 105 0.0 3.0 0.00 0.00 0.00 22 1002.7
20260831212629 99 34 0.0 3.0 0.00 0.00 0.00 23 1002.8
20260831212123 99 297 0.0 4.0 0.00 0.00 0.00 22 1003.0
20260831211635 100 316 0.0 3.0 0.00 0.00 0.00 25 1003.0
20260831211131 100 276 0.0 3.0 0.00 0.00 0.00 27 1003.2
20260831210626 100 273 0.0 3.0 0.00 0.00 0.00 21 1003.3
20260831210134 100 228 0.0 3.0 0.00 0.00 0.00 23 1003.3
20260831205629 100 163 0.0 1.0 0.00 0.00 0.00 26 1003.4
20260831205127 100 79 0.0 3.0 0.00 0.00 0.00 20 1003.5
20260831204637 100 143 0.0 3.0 0.00 0.00 0.00 22 1003.6
20260831204128 101 257 0.0 4.0 0.00 0.00 0.00 23 1003.7
20260831203626 100 217 0.0 4.0 0.00 0.00 0.00 22 1003.9
20260831203143 99 129 1.0 4.0 0.00 0.00 0.00 23 1003.9
20260831202631 99 111 0.0 4.0 0.00 0.00 0.00 23 1004.0
20260831202126 99 200 0.0 4.0 0.00 0.00 0.00 25 1004.1
20260831201624 99 113 0.0 3.0 0.00 0.00 0.00 25 1004.2
20260831201132 100 112 1.0 3.0 0.00 0.00 0.00 23 1004.3
20260831200629 100 125 0.0 2.0 0.00 0.00 0.00 24 1004.4
20260831200124 100 165 0.0 4.0 0.00 0.00 0.00 25 1004.4
20260831195635 101 94 1.0 4.0 0.00 0.00 0.00 23 1004.5
20260831195128 102 326 0.0 2.0 0.00 0.00 0.00 31 1004.6
20260831194639 101 150 0.0 2.0 0.00 0.00 0.00 23 1004.6
20260831194127 100 108 0.0 2.0 0.00 0.00 0.00 24 1004.7
20260831193632 100 16 0.0 2.0 0.00 0.00 0.00 27 1004.7
20260831193132 100 20 0.0 3.0 0.00 0.00 0.00 27 1004.8
20260831192630 99 132 1.0 3.0 0.00 0.00 0.00 26 1004.9
20260831192125 99 121 0.0 2.0 0.00 0.00 0.00 24 1004.9
20260831191634 99 116 0.0 2.0 0.00 0.00 0.00 25 1005.0
20260831191131 99 8 0.0 1.0 0.00 0.00 0.00 30 1005.0
20260831190628 99 58 0.0 3.0 0.00 0.00 0.00 25 1005.0
20260831190142 99 71 0.0 1.0 0.00 0.00 0.00 26 1005.1
20260831185632 98 278 0.0 1.0 0.00 0.00 0.00 27 1005.2
20260831185129 97 318 0.0 1.0 0.00 0.00 0.00 26 1005.4
20260831184624 98 314 0.0 1.0 0.00 0.00 0.00 35 1005.4
20260831184134 97 11 0.0 1.0 0.00 0.00 0.00 25 1005.4
20260831183630 97 108 0.0 1.0 0.00 0.00 0.00 27 1005.5
20260831183126 97 253 0.0 4.0 0.00 0.00 0.00 33 1005.6
20260831182624 96 257 0.0 5.0 0.00 0.00 0.00 30 1005.7
20260831182132 97 28 0.0 5.0 0.00 0.00 0.00 25 1005.7
20260831181627 97 242 0.0 1.0 0.00 0.00 0.00 29 1005.8
20260831181122 96 318 0.0 1.0 0.00 0.00 0.00 27 1005.8
20260831180634 95 255 0.0 1.0 0.00 0.00 0.00 28 1005.9
20260831180131 95 259 0.0 1.0 0.00 0.00 0.00 31 1005.9
20260831175625 95 214 0.0 2.0 0.00 0.00 0.00 31 1005.9
20260831175134 94 62 0.0 3.0 0.00 0.00 0.00 32 1006.0
20260831174630 93 236 0.0 5.0 0.00 0.00 0.00 30 1006.0
20260831174126 93 7 0.0 4.0 0.00 0.00 0.00 30 1006.1
20260831173639 93 41 0.0 5.0 0.00 0.00 0.00 31 1006.2
20260831173131 93 98 0.0 4.0 0.00 0.00 0.00 30 1006.3
20260831172628 92 245 0.0 4.0 0.00 0.00 0.00 33 1006.3
20260831172121 92 133 0.0 5.0 0.00 0.00 0.00 31 1006.3
20260831171633 92 352 0.0 6.0 0.00 0.00 0.00 34 1006.4
20260831171129 91 61 1.0 6.0 0.00 0.00 0.00 30 1006.4
20260831170626 91 47 0.0 6.0 0.00 0.00 0.00 32 1006.4
20260831170134 91 11 1.0 6.0 0.00 0.00 0.00 31 1006.6
20260831165628 90 114 0.0 4.0 0.00 0.00 0.00 32 1006.7
20260831165134 90 34 1.0 5.0 0.00 0.00 0.00 31 1006.7
20260831164630 90 4 1.0 5.0 0.00 0.00 0.00 32 1006.6
20260831164126 90 26 0.0 3.0 0.00 0.00 0.00 37 1006.7
20260831163620 89 57 0.0 8.0 0.00 0.00 0.00 34 1006.8
20260831163135 89 266 1.0 8.0 0.00 0.00 0.00 33 1006.8
20260831162629 89 239 0.0 5.0 0.00 0.00 0.00 39 1006.8
20260831162123 88 19 0.0 5.0 0.00 0.00 0.00 36 1006.8
20260831161633 87 57 0.0 5.0 0.00 0.00 0.00 37 1006.8
20260831161128 87 288 1.0 5.0 0.00 0.00 0.00 36 1006.7
20260831160627 86 40 0.0 4.0 0.00 0.00 0.00 37 1006.7
20260831160136 86 1 0.0 4.0 0.00 0.00 0.00 38 1006.7
20260831155626 85 44 1.0 5.0 0.00 0.00 0.00 37 1006.8
20260831155123 85 81 1.0 5.0 0.00 0.00 0.00 38 1006.7
20260831154634 84 16 0.0 4.0 0.00 0.00 0.00 40 1006.7
20260831154131 84 41 1.0 4.0 0.00 0.00 0.00 40 1006.7
20260831153625 83 57 0.0 5.0 0.00 0.00 0.00 42 1006.7
20260831153135 83 33 0.0 5.0 0.00 0.00 0.00 43 1006.8
20260831152631 82 13 0.0 3.0 0.00 0.00 0.00 45 1006.7
20260831152136 81 34 0.0 3.0 0.00 0.00 0.00 44 1006.7
20260831151624 81 156 0.0 1.0 0.00 0.00 0.00 46 1006.7
20260831151134 81 16 0.0 5.0 0.00 0.00 0.00 46 1006.6
20260831150629 80 26 1.0 6.0 0.00 0.00 0.00 46 1006.6
20260831150124 79 41 1.0 4.0 0.00 0.00 0.00 50 1006.7
20260831145633 78 26 0.0 1.0 0.00 0.00 0.00 52 1006.7
20260831145127 77 170 0.0 1.0 0.00 0.00 0.00 59 1006.7
20260831144622 75 20 0.0 2.0 0.00 0.00 0.00 57 1006.7
20260831144132 74 16 0.0 2.0 0.00 0.00 0.00 60 1006.7
20260831143629 74 146 0.0 0.0 0.00 0.00 0.00 65 1006.7
20260831143125 73 146 0.0 0.0 0.00 0.00 0.00 66 1006.6
20260831142634 72 147 0.0 0.0 0.00 0.00 0.00 65 1006.6
20260831142129 71 146 0.0 0.0 0.00 0.00 0.00 65 1006.6
20260831141640 70 146 0.0 0.0 0.00 0.00 0.00 65 1006.6
20260831141145 70 147 0.0 0.0 0.00 0.00 0.00 69 1006.5
20260831140629 69 146 0.0 0.0 0.00 0.00 0.00 71 1006.5
20260831140126 69 146 0.0 0.0 0.00 0.00 0.00 72 1006.5
20260831135623 68 146 0.0 0.0 0.00 0.00 0.00 72 1006.5
20260831135135 68 146 0.0 0.0 0.00 0.00 0.00 73 1006.4
20260831134626 67 146 0.0 0.0 0.00 0.00 0.00 73 1006.3
20260831134121 67 147 0.0 0.0 0.00 0.00 0.00 72 1006.3
20260831133631 67 146 0.0 0.0 0.00 0.00 0.00 71 1006.2
20260831133127 67 147 0.0 0.0 0.00 0.00 0.00 72 1006.1
20260831132521 66 146 0.0 0.0 0.00 0.00 0.00 72 1006.0
20260831132032 66 146 0.0 1.0 0.00 0.00 0.00 71 1005.9
20260831131529 66 146 0.0 1.0 0.00 0.00 0.00 71 1005.8
20260831131025 66 145 0.0 0.0 0.00 0.00 0.00 70 1005.7
20260831130532 67 145 0.0 0.0 0.00 0.00 0.00 69 1005.5
20260831130036 67 145 0.0 0.0 0.00 0.00 0.00 68 1005.5
20260831125524 67 145 0.0 1.0 0.00 0.00 0.00 67 1005.4
20260831125032 67 145 0.0 1.0 0.00 0.00 0.00 67 1005.4
20260831124529 68 145 0.0 0.0 0.00 0.00 0.00 65 1005.3
20260831124024 68 145 0.0 0.0 0.00 0.00 0.00 65 1005.2
20260831123533 68 145 0.0 0.0 0.00 0.00 0.00 64 1005.1
20260831123042 68 145 0.0 0.0 0.00 0.00 0.00 64 1005.0
20260831122524 68 145 0.0 0.0 0.00 0.00 0.00 62 1005.0
20260831122035 69 145 0.0 0.0 0.00 0.00 0.00 61 1005.1
20260831121537 69 145 0.0 0.0 0.00 0.00 0.00 60 1004.9
20260831121025 69 145 0.0 0.0 0.00 0.00 0.00 60 1004.9
20260831120535 70 145 0.0 0.0 0.00 0.00 0.00 60 1004.9
20260831120058 70 145 0.0 0.0 0.00 0.00 0.00 60 1004.9
20260831115524 70 145 0.0 0.0 0.00 0.00 0.00 59 1004.8
20260831115033 70 145 0.0 0.0 0.00 0.00 0.00 58 1004.8
20260831114533 70 145 0.0 0.0 0.00 0.00 0.00 56 1004.9
20260831114026 71 145 0.0 0.0 0.00 0.00 0.00 56 1004.9
20260831113523 71 145 0.0 0.0 0.00 0.00 0.00 55 1005.0
20260831113031 71 145 0.0 0.0 0.00 0.00 0.00 55 1005.0
20260831112526 71 145 0.0 0.0 0.00 0.00 0.00 55 1005.0
20260831112021 72 144 0.0 0.0 0.00 0.00 0.00 55 1005.0
20260831111532 72 143 0.0 0.0 0.00 0.00 0.00 55 1005.0
20260831111021 72 144 0.0 0.0 0.00 0.00 0.00 56 1005.0
20260831110532 72 145 0.0 0.0 0.00 0.00 0.00 54 1005.1
20260831110028 73 145 0.0 1.0 0.00 0.00 0.00 54 1005.1
20260831105523 73 146 0.0 1.0 0.00 0.00 0.00 52 1005.1
20260831105035 73 219 0.0 1.0 0.00 0.00 0.00 52 1005.1
20260831104537 73 224 0.0 1.0 0.00 0.00 0.00 52 1004.9
20260831104024 73 246 0.0 0.0 0.00 0.00 0.00 53 1004.9
20260831103536 73 246 0.0 0.0 0.00 0.00 0.00 52 1004.7
20260831103032 73 257 0.0 0.0 0.00 0.00 0.00 51 1004.8
20260831102523 74 257 0.0 0.0 0.00 0.00 0.00 50 1004.7
20260831102034 74 257 0.0 1.0 0.00 0.00 0.00 50 1004.6
20260831101521 75 257 0.0 1.0 0.00 0.00 0.00 48 1004.6
20260831101036 76 257 0.0 3.0 0.00 0.00 0.00 49 1004.7
20260831100531 76 11 0.0 3.0 0.00 0.00 0.00 47 1004.5
20260831100028 77 330 0.0 1.0 0.00 0.00 0.00 47 1004.4
20260831095537 77 335 0.0 3.0 0.00 0.00 0.00 45 1004.3
20260831095031 77 25 0.0 2.0 0.00 0.00 0.00 44 1004.2
20260831094527 77 28 0.0 2.0 0.00 0.00 0.00 45 1004.3
20260831094039 77 37 0.0 2.0 0.00 0.00 0.00 44 1004.3
20260831093533 77 24 0.0 2.0 0.00 0.00 0.00 45 1004.1
20260831093027 77 18 0.0 1.0 0.00 0.00 0.00 45 1004.2
20260831092523 77 29 0.0 1.0 0.00 0.00 0.00 46 1004.3
20260831092036 77 25 0.0 1.0 0.00 0.00 0.00 46 1004.2
20260831091528 78 37 0.0 1.0 0.00 0.00 0.00 44 1004.2
20260831091033 78 40 0.0 1.0 0.00 0.00 0.00 44 1004.2
20260831090530 78 40 0.0 1.0 0.00 0.00 0.00 45 1004.3
20260831090024 78 41 0.0 0.0 0.00 0.00 0.00 42 1004.2
20260831085535 79 40 0.0 1.0 0.00 0.00 0.00 42 1004.2
20260831085029 79 40 0.0 1.0 0.00 0.00 0.00 42 1004.2
20260831084528 79 359 0.0 1.0 0.00 0.00 0.00 42 1004.2
20260831084035 79 350 0.0 4.0 0.00 0.00 0.00 41 1004.2
20260831083531 79 43 0.0 4.0 0.00 0.00 0.00 40 1004.2
20260831083027 80 37 0.0 3.0 0.00 0.00 0.00 40 1004.2
20260831082537 80 20 0.0 3.0 0.00 0.00 0.00 40 1004.2
20260831082032 80 341 0.0 3.0 0.00 0.00 0.00 40 1004.2
20260831081539 80 49 0.0 3.0 0.00 0.00 0.00 40 1004.2
20260831081037 80 101 0.0 1.0 0.00 0.00 0.00 40 1004.2
20260831080522 80 32 0.0 1.0 0.00 0.00 0.00 40 1004.3
20260831080035 81 40 0.0 1.0 0.00 0.00 0.00 39 1004.3
20260831075528 81 30 0.0 2.0 0.00 0.00 0.00 38 1004.5
20260831075024 81 13 0.0 2.0 0.00 0.00 0.00 38 1004.5
20260831074534 81 29 0.0 2.0 0.00 0.00 0.00 38 1004.5
20260831074033 82 49 0.0 3.0 0.00 0.00 0.00 38 1004.6
20260831073528 82 49 0.0 3.0 0.00 0.00 0.00 36 1004.6
20260831073036 82 26 0.0 3.0 0.00 0.00 0.00 38 1004.7
20260831072549 82 19 0.0 3.0 0.00 0.00 0.00 37 1004.8
20260831072031 82 18 0.0 3.0 0.00 0.00 0.00 37 1004.8
20260831071531 82 336 0.0 4.0 0.00 0.00 0.00 38 1004.8
20260831071032 81 16 0.0 4.0 0.00 0.00 0.00 38 1004.9
20260831070527 81 9 0.0 2.0 0.00 0.00 0.00 39 1004.9
20260831070030 82 360 0.0 2.0 0.00 0.00 0.00 38 1005.0
20260831065534 82 7 0.0 2.0 0.00 0.00 0.00 37 1005.0
20260831065029 81 6 0.0 2.0 0.00 0.00 0.00 38 1004.9
20260831064528 81 12 0.0 4.0 0.00 0.00 0.00 39 1004.9
20260831064036 80 40 0.0 5.0 0.00 0.00 0.00 42 1004.9
20260831063531 77 23 1.0 5.0 0.00 0.00 0.00 48 1004.9
20260831063028 75 13 0.0 3.0 0.00 0.00 0.00 55 1005.0
20260831062524 74 332 0.0 1.0 0.00 0.00 0.00 58 1005.0
20260831062032 74 331 0.0 0.0 0.00 0.00 0.00 58 1004.9
20260831061526 74 332 0.0 0.0 0.00 0.00 0.00 56 1004.8
20260831061035 74 332 0.0 0.0 0.00 0.00 0.00 55 1004.7
20260831060531 74 331 0.0 0.0 0.00 0.00 0.00 58 1004.6
20260831060028 74 331 0.0 0.0 0.00 0.00 0.00 58 1004.6
20260831055539 74 331 0.0 0.0 0.00 0.00 0.00 59 1004.5
20260831055036 74 332 0.0 0.0 0.00 0.00 0.00 59 1004.6
20260831054528 74 331 0.0 0.0 0.00 0.00 0.00 55 1004.6
20260831054026 74 332 0.0 0.0 0.00 0.00 0.00 56 1004.6
20260831053533 75 331 0.0 0.0 0.00 0.00 0.00 56 1004.6
20260831053030 75 332 0.0 0.0 0.00 0.00 0.00 56 1004.6
20260831052538 76 332 0.0 0.0 0.00 0.00 0.00 55 1004.5
20260831052031 76 331 0.0 0.0 0.00 0.00 0.00 53 1004.6
20260831051544 76 332 0.0 0.0 0.00 0.00 0.00 54 1004.7
20260831051023 76 331 0.0 0.0 0.00 0.00 0.00 52 1004.7
20260831050533 76 331 0.0 0.0 0.00 0.00 0.00 51 1004.7
20260831050029 77 331 0.0 0.0 0.00 0.00 0.00 51 1004.7
20260831045524 77 11 0.0 1.0 0.00 0.00 0.00 52 1004.7
20260831045035 77 11 0.0 1.0 0.00 0.00 0.00 51 1004.7
20260831044531 76 11 0.0 0.0 0.00 0.00 0.00 52 1004.7
20260831044041 76 11 0.0 1.0 0.00 0.00 0.00 53 1004.8
20260831043531 76 11 0.0 1.0 0.00 0.00 0.00 54 1004.6
20260831043026 76 353 0.0 0.0 0.00 0.00 0.00 55 1004.6
20260831042537 76 353 0.0 0.0 0.00 0.00 0.00 54 1004.5
20260831042032 76 352 0.0 0.0 0.00 0.00 0.00 50 1004.5
20260831041533 76 352 0.0 0.0 0.00 0.00 0.00 49 1004.4
20260831041033 77 352 0.0 0.0 0.00 0.00 0.00 48 1004.4
20260831040534 77 352 0.0 0.0 0.00 0.00 0.00 47 1004.4
20260831040041 77 353 0.0 0.0 0.00 0.00 0.00 46 1004.3
20260831035529 77 352 0.0 0.0 0.00 0.00 0.00 45 1004.2
20260831035035 77 352 0.0 0.0 0.00 0.00 0.00 45 1004.2
20260831034531 78 352 0.0 0.0 0.00 0.00 0.00 45 1004.1
20260831034026 78 352 0.0 0.0 0.00 0.00 0.00 45 1004.0
20260831033534 78 352 0.0 0.0 0.00 0.00 0.00 44 1004.0
20260831033032 78 352 0.0 0.0 0.00 0.00 0.00 47 1003.9
20260831032526 78 352 0.0 0.0 0.00 0.00 0.00 45 1003.9
20260831032035 78 354 0.0 0.0 0.00 0.00 0.00 45 1003.8
20260831031533 78 354 0.0 0.0 0.00 0.00 0.00 46 1003.7
20260831031025 78 354 0.0 0.0 0.00 0.00 0.00 47 1003.6
20260831030535 79 354 0.0 0.0 0.00 0.00 0.00 48 1003.5
20260831030031 79 354 0.0 0.0 0.00 0.00 0.00 48 1003.4
20260831025525 79 354 0.0 0.0 0.00 0.00 0.00 47 1003.3
20260831025022 79 354 0.0 0.0 0.00 0.00 0.00 46 1003.3
20260831024532 80 354 0.0 0.0 0.00 0.00 0.00 45 1003.2
20260831024031 80 354 0.0 0.0 0.00 0.00 0.00 44 1003.1
20260831023541 80 354 0.0 0.0 0.00 0.00 0.00 42 1003.0
20260831023039 80 354 0.0 0.0 0.00 0.00 0.00 42 1003.0
20260831022527 81 354 0.0 0.0 0.00 0.00 0.00 42 1002.9
20260831022023 81 354 0.0 0.0 0.00 0.00 0.00 42 1002.9
20260831021550 81 354 0.0 0.0 0.00 0.00 0.00 41 1002.8
20260831021031 81 354 0.0 0.0 0.00 0.00 0.00 41 1002.9
20260831020526 81 354 0.0 0.0 0.00 0.00 0.00 41 1002.8
20260831020035 82 354 0.0 0.0 0.00 0.00 0.00 42 1002.7
20260831015538 82 354 0.0 0.0 0.00 0.00 0.00 41 1002.7
20260831015023 82 354 0.0 0.0 0.00 0.00 0.00 41 1002.6
20260831014534 82 354 0.0 0.0 0.00 0.00 0.00 41 1002.5
20260831014030 83 354 0.0 0.0 0.00 0.00 0.00 40 1002.5
20260831013524 83 354 0.0 0.0 0.00 0.00 0.00 41 1002.4
20260831013040 83 354 0.0 0.0 0.00 0.00 0.00 42 1002.4
20260831012533 84 354 0.0 0.0 0.00 0.00 0.00 40 1002.4
20260831012025 84 354 0.0 0.0 0.00 0.00 0.00 40 1002.4
20260831011542 85 354 0.0 0.0 0.00 0.00 0.00 40 1002.4
20260831011031 85 354 0.0 0.0 0.00 0.00 0.00 38 1002.4
20260831010528 86 354 0.0 0.0 0.00 0.00 0.00 37 1002.4
20260831010040 86 354 0.0 0.0 0.00 0.00 0.00 38 1002.4
20260831005533 87 354 0.0 0.0 0.00 0.00 0.00 38 1002.4
20260831005033 88 354 0.0 0.0 0.00 0.00 0.00 37 1002.4
20260831004547 89 354 0.0 0.0 0.00 0.00 0.00 36 1002.5
20260831004031 90 354 0.0 1.0 0.00 0.00 0.00 36 1002.5
20260831003527 90 354 0.0 1.0 0.00 0.00 0.00 35 1002.5
20260831003036 90 259 0.0 1.0 0.00 0.00 0.00 35 1002.5
20260831002531 90 259 0.0 1.0 0.00 0.00 0.00 31 1002.5
20260831002027 91 201 0.0 1.0 0.00 0.00 0.00 32 1002.5
20260831001552 91 335 0.0 0.0 0.00 0.00 0.00 33 1002.5
20260831001033 92 335 0.0 0.0 0.00 0.00 0.00 32 1002.4
20260831000527 92 217 0.0 1.0 0.00 0.00 0.00 30 1002.4
20260831000022 93 186 0.0 1.0 0.00 0.00 0.00 31 1002.4
20260830235534 93 186 0.0 2.0 0.00 0.00 0.00 31 1002.4
20260830235031 93 124 0.0 1.0 0.00 0.00 0.00 31 1002.4
20260830234535 93 58 0.0 1.0 0.00 0.00 0.00 30 1002.4
20260830234034 94 77 0.0 1.0 0.00 0.00 0.00 30 1002.4
20260830233526 94 81 0.0 1.0 0.00 0.00 0.00 31 1002.5
20260830233022 95 111 0.0 1.0 0.00 0.00 0.00 30 1002.6
20260830232532 96 104 0.0 1.0 0.00 0.00 0.00 29 1002.6
20260830232030 96 98 0.0 1.0 0.00 0.00 0.00 27 1002.7
20260830231529 96 103 0.0 1.0 0.00 0.00 0.00 26 1002.7